Warrenton, OR

12:59 AM PDT on August 24, 2016 (GMT -0700)
Astoria Regional

Weather History for KAST - October, 2013

Change the Weather History Date:

Friday, October 4, 2013

  Actual Average Record
Temperature  
Mean Temperature 52 °F 55 °F  
Max Temperature 64 °F 64 °F 82 °F (1942)
Min Temperature 40 °F 46 °F 33 °F (1973)
Degree Days  
Heating Degree Days 13 10  
Month to date heating degree days 57 39  
Since 1 July heating degree days 450 520  
Cooling Degree Days 0 0  
Month to date cooling degree days 0 0  
Year to date cooling degree days 9 12  
Growing Degree Days 4 (Base 50)    
Moisture  
Dew Point 45 °F    
Average Humidity 74    
Maximum Humidity 100    
Minimum Humidity 48    
Precipitation  
Precipitation 0.00 in 0.12 in 2.50 in (1920)
Month to date precipitation 0.90 0.46  
Year to date precipitation 47.95 40.70  
Snow  
Snow 0.00 in - - ()
Month to date snowfall 0.0  
Snow Depth 0.00 in    
Sea Level Pressure  
Sea Level Pressure 30.40 in    
Wind  
Wind Speed 3 mph (ESE)    
Max Wind Speed 8 mph    
Max Gust Speed 10 mph    
Visibility 6 miles    
Events Fog    
T = Trace of Precipitation, MM = Missing Value Source: NWS Daily Summary

Daily Weather History Graph

Daily Weather History Graph

Search for Another Location

Airport or City:

Trip Planner

Search our weather history database for the weather conditions in past years. The results will help you decide how hot, cold, wet, or windy it might be!

Date:

Astronomy

Oct. 04, 2013 Rise Set
Actual Time 7:18 AM PDT 6:49 PM PDT
Civil Twilight 6:48 AM PDT 7:18 PM PDT
Nautical Twilight 6:13 AM PDT 7:53 PM PDT
Astronomical Twilight 5:38 AM PDT 8:28 PM PDT
Moon 7:00 AM PDT (10/4) 6:32 PM PDT (10/4)
Length of Visible Light 12h 30m
Length of Day
11h 30m
Waning Crescent, 0% of the Moon is Illuminated
Oct 4
Waning Crescent
Oct 4
New
Oct 11
First Quarter
Oct 18
Full
Oct 26
Last Quarter

Hourly Weather History & Observations

Time (PDT) Temp. Windchill Dew Point Humidity Pressure Visibility Wind Dir Wind Speed Gust Speed Precip Events Conditions
12:55 AM 46.0 °F 44.8 °F 44.1 °F 93% 30.43 in 10.0 mi SE 3.5 mph - N/A   Clear
1:55 AM 44.1 °F - 42.1 °F 93% 30.43 in 10.0 mi Calm Calm - N/A   Clear
2:55 AM 42.1 °F - 41.0 °F 96% 30.44 in 10.0 mi Calm Calm - N/A   Clear
3:55 AM 42.1 °F - 39.9 °F 92% 30.43 in 10.0 mi Calm Calm - N/A   Clear
4:17 AM 39.2 °F 37.0 °F 39.2 °F 100% 30.42 in 10.0 mi ESE 3.5 mph - N/A   Scattered Clouds
4:26 AM 41.0 °F - 39.2 °F 93% 30.42 in 10.0 mi Calm Calm - N/A   Mostly Cloudy
4:42 AM 42.8 °F - 42.8 °F 100% 30.42 in 1.8 mi Calm Calm - N/A   Overcast
4:51 AM 42.8 °F - 42.8 °F 100% 30.42 in 1.0 mi Calm Calm - N/A   Overcast
4:55 AM 44.1 °F 42.5 °F 43.0 °F 96% 30.42 in 1.0 mi SE 3.5 mph - N/A   Mist
5:05 AM 44.6 °F - 44.6 °F 100% 30.42 in 0.8 mi Calm Calm - N/A   Mist
5:24 AM 44.6 °F - 44.6 °F 100% 30.43 in 0.2 mi Calm Calm - N/A Fog Fog
5:42 AM 44.6 °F - 44.6 °F 100% 30.43 in 0.5 mi Calm Calm - N/A Fog Fog
5:55 AM 45.0 °F 43.5 °F 45.0 °F 100% 30.42 in 0.8 mi SE 3.5 mph - N/A   Mist
6:15 AM 44.6 °F - 44.6 °F 100% 30.43 in 1.5 mi Calm Calm - N/A   Overcast
6:19 AM 44.6 °F 43.1 °F 44.6 °F 100% 30.43 in 3.0 mi East 3.5 mph - N/A   Overcast
6:55 AM 44.1 °F 42.5 °F 44.1 °F 100% 30.42 in 8.0 mi East 3.5 mph - N/A   Overcast
7:53 AM 44.6 °F 43.1 °F 42.8 °F 93% 30.42 in 6.0 mi ESE 3.5 mph - N/A   Scattered Clouds
7:55 AM 44.1 °F 42.5 °F 43.0 °F 96% 30.42 in 6.0 mi ESE 3.5 mph - N/A   Partly Cloudy
8:55 AM 46.9 °F - 45.0 °F 93% 30.43 in 10.0 mi East 3.5 mph - N/A   Clear
9:55 AM 50.0 °F - 46.9 °F 89% 30.43 in 10.0 mi Calm Calm - N/A   Clear
10:55 AM 55.0 °F - 48.0 °F 77% 30.43 in 10.0 mi ENE 3.5 mph - N/A   Clear
11:55 AM 57.0 °F - 48.9 °F 74% 30.42 in 10.0 mi NNW 3.5 mph - N/A   Clear
12:55 PM 60.1 °F - 48.0 °F 64% 30.42 in 10.0 mi North 4.6 mph - N/A   Clear
1:55 PM 62.1 °F - 48.9 °F 62% 30.39 in 10.0 mi North 4.6 mph - N/A   Clear
2:55 PM 63.0 °F - 46.9 °F 56% 30.38 in 10.0 mi North 4.6 mph - N/A   Clear
3:55 PM 64.0 °F - 45.0 °F 50% 30.38 in 3.0 mi WNW 4.6 mph - N/A   Haze
4:55 PM 61.0 °F - 46.0 °F 58% 30.37 in 4.0 mi West 6.9 mph - N/A   Haze
5:28 PM 60.8 °F - 44.6 °F 55% 30.36 in 2.5 mi West 5.8 mph - N/A   Haze
5:38 PM 60.8 °F - 44.6 °F 55% 30.36 in 4.0 mi West 5.8 mph - N/A   Haze
5:55 PM 60.1 °F - 46.0 °F 60% 30.35 in 4.0 mi West 3.5 mph - N/A   Haze
6:55 PM 55.0 °F - 48.0 °F 77% 30.36 in 5.0 mi SW 3.5 mph - N/A   Haze
7:55 PM 52.0 °F - 48.0 °F 86% 30.35 in 10.0 mi SSE 4.6 mph - N/A   Clear
8:55 PM 50.0 °F - 46.9 °F 89% 30.35 in 10.0 mi ESE 3.5 mph - N/A   Clear
9:55 PM 48.0 °F - 46.0 °F 93% 30.35 in 10.0 mi SE 3.5 mph - N/A   Clear
10:55 PM 46.9 °F - 45.0 °F 93% 30.35 in 10.0 mi Calm Calm - N/A   Clear
11:55 PM 45.0 °F 42.6 °F 43.0 °F 93% 30.34 in 10.0 mi SE 4.6 mph - N/A   Clear